sat.trackr.live / text

‹ back to catalog

KUIPER-00353

NORAD 68865 · 2026-095B

PAYLOAD ACTIVE UNKNOWN

§ Identity

Operator
Country
US
Launch date
2026-04-28
Launch site
AFETR
Launch vehicle
Mass (kg)
RCS (m²)

External: N2YO · Heavens-Above · Gunter

§ Orbital elements

Epoch: 2026-09-20T03:05:05.085312Z

Period
97.30 min
Inclination
51.8998°
Eccentricity
0.0001003
Mean motion
14.79926670 rev/d
Perigee alt
628.9 km
Apogee alt
630.3 km
Semi-major
7,007.7 km
B*
3.4876e-5
RAAN
175.8275°
Arg perigee
135.6911°
Mean anomaly
224.4131°
Rev number
2,188

§ Raw data

KUIPER-003531 68865U 26095B   26263.12853108  .00000045  00000+0  34876-4 0  99922 68865  51.8998 175.8275 0001003 135.6911 224.4131 14.79926670 21887

JSON: /api/v1/satellites/68865 · /tle

For live sub-satellite position, see the globe view (requires WebGL).

§ Visibility from observer

Set your observer location to see the next 7 days of passes ≥ 10°. The values pass through the URL so the page stays shareable.

No JS? Fill the form by hand. The geolocation button needs JavaScript.